Zurück zum Katalog

CZ-6A DEB

AktivSSO
NORAD 56277·DEBRIS·🇨🇳 China

Gestartet Nov 11, 2022 von Taiyuan Satellite Launch Center

Loading…

Nächste Überflüge (nächste 24 Stunden)

TLE

AktuellSource: Space-Track

Epoche: Sep 14, 2026, 00:01 UTC

1 56277U 22151ACV 26257.00079405  .00001278  00000-0  49761-3 0  9993
2 56277  98.7152 282.2010 0047919  66.0701 294.5490 14.30884823181628

Verfolge CZ-6A DEB in Echtzeit mit AllMySat

Download on the App Store